Home > Weather > Longyearbyen > Past weeks

Flag for Norway Past Weather in Longyearbyen, Svalbard, Norway — Yesterday and Last 2 Weeks

Now
41 °F

Scattered clouds.


Feels Like: 35 °F
Forecast: 36 / 39 °F
Wind: 9 mph from West

Location: Svalbard Lufthavn

Current Time: May 31, 2016 at 4:15:59 AM

Latest Report: May 31, 2016 at 2:50 AM


Visibility: N/A

Pressure: 30.21 "Hg

Humidity: 76%

Dew Point: 34 °F

Location of LongyearbyenLocation

Past Weather in Longyearbyen — Graph

°F

Longyearbyen Temperature Yesterday

Maximum temperature yesterday: 41 °F (at 8:50 AM)
Minimum temperature yesterday: 37 °F (at 12:50 AM)
Average temperature yesterday: 40 °F

High & Low Weather Summary for the Past Weeks

 TemperatureHumidityPressure
High46 °F (May 27, 11:20 AM)100% (May 16, 10:50 AM)30.51 "Hg (May 16, 10:50 AM)
Low25 °F (May 19, 7:20 AM)52% (May 22, 7:50 PM)29.36 "Hg (May 18, 10:20 AM)
Average36 °F74%29.87 "Hg
* Reported May 16 2:50 AM — May 31 2:50 AM, Longyearbyen, Weather by CustomWeather, © 2016

Note: Actual official high and low records may vary slightly from our data, if they occured in-between our weather recording intervals... More about our weather records

Advertising

Longyearbyen Weather History for the Previous 24 Hours

Scroll right to see more
 ConditionsComfort  
Time TempWeatherWind HumidityBarometerVisibility
2:50 AM
Tue, May 31
41 °FScattered clouds.9 mph76%30.21 "HgN/A
1:50 AM41 °FScattered clouds.10 mph81%30.24 "HgN/A
12:50 AM39 °FPartly sunny.10 mph87%30.24 "HgN/A
11:50 PM
Mon, May 30
41 °FScattered clouds.7 mph81%30.27 "HgN/A
10:50 PM41 °FPartly sunny.3 mph76%30.27 "HgN/A
9:50 PM41 °FPartly sunny.3 mph81%30.30 "HgN/A
8:50 PM41 °FPartly sunny.3 mph81%30.30 "HgN/A
7:50 PM39 °FPartly sunny.1 mph81%30.33 "HgN/A
6:50 PM39 °FPartly sunny.2 mph75%30.33 "HgN/A
5:50 PM41 °FPartly sunny.1 mph76%30.36 "HgN/A
5:20 PM41 °FScattered clouds.3 mph76%30.36 "HgN/A
4:50 PM39 °FPassing clouds.6 mph75%30.39 "HgN/A
4:20 PM41 °FPassing clouds.7 mph76%30.39 "HgN/A
3:50 PM39 °FPassing clouds.7 mph75%30.39 "HgN/A
3:20 PM39 °FScattered clouds.7 mph81%30.42 "HgN/A
2:50 PM41 °FPartly sunny.6 mph76%30.42 "HgN/A
2:20 PM39 °FScattered clouds.6 mph75%30.42 "HgN/A
1:50 PM39 °FPartly sunny.6 mph81%30.42 "HgN/A
1:20 PM39 °FPartly sunny.9 mph81%30.45 "HgN/A
12:50 PM39 °FScattered clouds.9 mph75%30.42 "HgN/A
12:20 PM39 °FPartly sunny.9 mph75%30.45 "HgN/A
11:50 AM39 °FPartly sunny.12 mph81%30.45 "HgN/A
10:50 AM41 °FPassing clouds.10 mph76%30.45 "HgN/A
10:20 AM39 °FScattered clouds.10 mph81%30.45 "HgN/A
9:50 AM39 °FPartly sunny.14 mph81%30.45 "HgN/A
9:20 AM39 °FPartly sunny.10 mph81%30.45 "HgN/A
8:50 AM41 °FPartly sunny.10 mph70%30.45 "HgN/A
8:20 AM39 °FPartly sunny.12 mph75%30.45 "HgN/A
7:50 AM39 °FBroken clouds.9 mph81%30.45 "HgN/A
7:20 AM39 °FBroken clouds.6 mph81%30.48 "HgN/A
6:50 AM39 °FPartly sunny.6 mph81%30.48 "HgN/A
5:50 AM39 °FPartly sunny.3 mph81%30.48 "HgN/A
4:50 AM39 °FPartly sunny.3 mph75%30.48 "HgN/A
Weather by CustomWeather, © 2016

See weather overviewHow to use our weather pages